Time,TemperatureF,DewpointF,PressureIn,WindDirection,WindDirectionDegrees,WindSpeedMPH,WindSpeedGustMPH,Humidity,HourlyPrecipIn,Conditions,Clouds,dailyrainin,SolarRadiationWatts/m^2,SoftwareType,DateUTC
2013-02-01 00:03:00,35.0,14.0,-100.00,WSW,248,11.0,42.0,42,0.00,,,0.01,0.000000,,2013-02-01 05:03:00,
2013-02-01 00:32:00,34.0,16.0,-100.00,WSW,255,8.0,30.0,47,0.00,,,0.01,0.000000,,2013-02-01 05:32:00,
2013-02-01 00:42:00,34.0,16.0,-100.00,WSW,255,8.0,30.0,47,0.00,,,0.01,0.000000,,2013-02-01 05:42:00,
2013-02-01 00:52:00,34.0,16.0,-100.00,WSW,255,8.0,30.0,47,0.00,,,0.01,0.000000,,2013-02-01 05:52:00,
2013-02-01 01:02:00,34.0,16.0,-100.00,WSW,255,8.0,30.0,47,0.00,,,0.01,0.000000,,2013-02-01 06:02:00,
2013-02-01 01:32:00,35.0,19.0,-100.00,WSW,255,9.0,26.0,51,0.00,,,0.00,0.000000,,2013-02-01 06:32:00,
2013-02-01 01:42:00,35.0,19.0,-100.00,WSW,255,9.0,26.0,51,0.00,,,0.00,0.000000,,2013-02-01 06:42:00,
2013-02-01 01:52:00,35.0,19.0,-100.00,WSW,255,9.0,26.0,51,0.00,,,0.00,0.000000,,2013-02-01 06:52:00,
2013-02-01 02:02:00,35.0,19.0,-100.00,WSW,255,9.0,26.0,51,0.00,,,0.00,0.000000,,2013-02-01 07:02:00,
2013-02-01 02:32:00,36.0,20.0,-100.00,West,270,9.0,34.0,51,0.00,,,0.00,0.000000,,2013-02-01 07:32:00,
2013-02-01 02:42:00,36.0,20.0,-100.00,West,270,9.0,34.0,51,0.00,,,0.00,0.000000,,2013-02-01 07:42:00,
2013-02-01 02:52:00,36.0,20.0,-100.00,West,270,9.0,34.0,51,0.00,,,0.00,0.000000,,2013-02-01 07:52:00,
2013-02-01 03:01:00,36.0,20.0,-100.00,West,270,9.0,34.0,51,0.00,,,0.00,0.000000,,2013-02-01 08:01:00,
2013-02-01 03:32:00,36.0,21.0,-100.00,WSW,237,9.0,29.0,54,0.00,,,0.00,0.000000,,2013-02-01 08:32:00,
2013-02-01 03:42:00,36.0,21.0,-100.00,WSW,237,9.0,29.0,54,0.00,,,0.00,0.000000,,2013-02-01 08:42:00,
2013-02-01 03:52:00,36.0,21.0,-100.00,WSW,237,9.0,29.0,54,0.00,,,0.00,0.000000,,2013-02-01 08:52:00,
2013-02-01 04:02:00,36.0,21.0,-100.00,WSW,237,9.0,29.0,54,0.00,,,0.00,0.000000,,2013-02-01 09:02:00,
2013-02-01 04:32:00,36.0,21.0,-100.00,SW,231,11.0,34.0,55,0.00,,,0.00,0.000000,,2013-02-01 09:32:00,
2013-02-01 04:42:00,36.0,21.0,-100.00,SW,231,11.0,34.0,55,0.00,,,0.00,0.000000,,2013-02-01 09:42:00,
2013-02-01 04:52:00,36.0,21.0,-100.00,SW,231,11.0,34.0,55,0.00,,,0.00,0.000000,,2013-02-01 09:52:00,
2013-02-01 05:01:00,36.0,21.0,-100.00,SW,231,11.0,34.0,55,0.00,,,0.00,0.000000,,2013-02-01 10:01:00,
2013-02-01 05:21:00,33.0,21.0,-100.00,WSW,242,11.0,27.0,62,0.00,,,0.00,0.000000,,2013-02-01 10:21:00,
2013-02-01 05:32:00,33.0,21.0,-100.00,WSW,242,11.0,27.0,62,0.00,,,0.00,0.000000,,2013-02-01 10:32:00,
2013-02-01 05:43:00,33.0,21.0,-100.00,WSW,242,11.0,27.0,62,0.00,,,0.00,0.000000,,2013-02-01 10:43:00,
2013-02-01 05:53:00,33.0,21.0,-100.00,WSW,242,11.0,27.0,62,0.00,,,0.00,0.000000,,2013-02-01 10:53:00,
2013-02-01 06:02:00,33.0,21.0,-100.00,WSW,242,11.0,27.0,62,0.00,,,0.00,0.000000,,2013-02-01 11:02:00,
2013-02-01 06:32:00,30.0,14.0,-100.00,East,79,9.0,23.0,50,0.00,,,0.00,0.000000,,2013-02-01 11:32:00,
2013-02-01 06:42:00,30.0,14.0,-100.00,East,79,9.0,23.0,50,0.00,,,0.00,0.000000,,2013-02-01 11:42:00,
2013-02-01 06:53:00,30.0,14.0,-100.00,East,79,9.0,23.0,50,0.00,,,0.00,0.000000,,2013-02-01 11:53:00,
2013-02-01 07:03:00,30.0,14.0,-100.00,East,79,9.0,23.0,50,0.00,,,0.00,0.000000,,2013-02-01 12:03:00,
2013-02-01 07:32:00,25.0,-5.0,-100.00,ENE,76,9.0,25.0,26,0.00,,,0.00,0.000000,,2013-02-01 12:32:00,
2013-02-01 08:33:00,22.0,-7.0,-100.00,NE,43,9.0,26.0,27,0.00,,,0.00,5.000000,,2013-02-01 13:33:00,
2013-02-01 09:03:00,22.0,-7.0,-100.00,NE,43,9.0,26.0,27,0.00,,,0.00,5.000000,,2013-02-01 14:03:00,
2013-02-01 09:32:00,22.0,-4.0,-100.00,ENE,70,8.0,18.0,31,0.00,,,0.00,80.000000,,2013-02-01 14:32:00,
2013-02-01 09:42:00,22.0,-4.0,-100.00,ENE,70,8.0,18.0,31,0.00,,,0.00,80.000000,,2013-02-01 14:42:00,
2013-02-01 09:53:00,22.0,-4.0,-100.00,ENE,70,8.0,18.0,31,0.00,,,0.00,80.000000,,2013-02-01 14:53:00,
2013-02-01 10:02:00,22.0,-4.0,-100.00,ENE,70,8.0,18.0,31,0.00,,,0.00,80.000000,,2013-02-01 15:02:00,
2013-02-01 10:33:00,24.0,-1.0,-100.00,ENE,66,6.0,15.0,33,0.00,,,0.00,278.000000,,2013-02-01 15:33:00,
2013-02-01 10:42:00,24.0,-1.0,-100.00,ENE,66,6.0,15.0,33,0.00,,,0.00,278.000000,,2013-02-01 15:42:00,
2013-02-01 10:52:00,24.0,-1.0,-100.00,ENE,66,6.0,15.0,33,0.00,,,0.00,278.000000,,2013-02-01 15:52:00,
2013-02-01 11:03:00,24.0,-1.0,-100.00,ENE,66,6.0,15.0,33,0.00,,,0.00,278.000000,,2013-02-01 16:03:00,
2013-02-01 11:33:00,25.0,0.0,-100.00,ENE,73,6.0,16.0,33,0.00,,,0.00,336.000000,,2013-02-01 16:33:00,
2013-02-01 11:43:00,25.0,0.0,-100.00,ENE,73,6.0,16.0,33,0.00,,,0.00,336.000000,,2013-02-01 16:43:00,
2013-02-01 11:53:00,25.0,0.0,-100.00,ENE,73,6.0,16.0,33,0.00,,,0.00,336.000000,,2013-02-01 16:53:00,
2013-02-01 12:03:00,25.0,0.0,-100.00,ENE,73,6.0,16.0,33,0.00,,,0.00,336.000000,,2013-02-01 17:03:00,
2013-02-01 12:32:00,28.0,-1.0,-100.00,NE,47,5.0,22.0,28,0.00,,,0.00,596.000000,,2013-02-01 17:32:00,
2013-02-01 12:42:00,28.0,-1.0,-100.00,NE,47,5.0,22.0,28,0.00,,,0.00,596.000000,,2013-02-01 17:42:00,
2013-02-01 12:53:00,28.0,-1.0,-100.00,NE,47,5.0,22.0,28,0.00,,,0.00,596.000000,,2013-02-01 17:53:00,
2013-02-01 13:03:00,28.0,-1.0,-100.00,NE,47,5.0,22.0,28,0.00,,,0.00,596.000000,,2013-02-01 18:03:00,
2013-02-01 13:33:00,30.0,-1.0,-100.00,NE,44,7.0,16.0,26,0.00,,,0.00,702.000000,,2013-02-01 18:33:00,
2013-02-01 13:42:00,30.0,-1.0,-100.00,NE,44,7.0,16.0,26,0.00,,,0.00,702.000000,,2013-02-01 18:42:00,
2013-02-01 13:53:00,30.0,-1.0,-100.00,NE,44,7.0,16.0,26,0.00,,,0.00,702.000000,,2013-02-01 18:53:00,
2013-02-01 14:32:00,31.0,-1.0,-100.00,North,9,7.0,18.0,25,0.00,,,0.00,665.000000,,2013-02-01 19:32:00,
2013-02-01 14:42:00,31.0,-1.0,-100.00,North,9,7.0,18.0,25,0.00,,,0.00,665.000000,,2013-02-01 19:42:00,
2013-02-01 14:52:00,31.0,-1.0,-100.00,North,9,7.0,18.0,25,0.00,,,0.00,665.000000,,2013-02-01 19:52:00,
2013-02-01 15:02:00,31.0,-1.0,-100.00,North,9,7.0,18.0,25,0.00,,,0.00,665.000000,,2013-02-01 20:02:00,
2013-02-01 15:22:00,31.0,-2.0,-100.00,NNE,17,7.0,17.0,23,0.00,,,0.00,546.000000,,2013-02-01 20:22:00,
2013-02-01 15:32:00,31.0,-2.0,-100.00,NNE,17,7.0,17.0,23,0.00,,,0.00,546.000000,,2013-02-01 20:32:00,
2013-02-01 15:42:00,31.0,-2.0,-100.00,NNE,17,7.0,17.0,23,0.00,,,0.00,546.000000,,2013-02-01 20:42:00,
2013-02-01 15:52:00,31.0,-2.0,-100.00,NNE,17,7.0,17.0,23,0.00,,,0.00,546.000000,,2013-02-01 20:52:00,
2013-02-01 16:02:00,31.0,-2.0,-100.00,NNE,17,7.0,17.0,23,0.00,,,0.00,546.000000,,2013-02-01 21:02:00,
2013-02-01 16:32:00,32.0,-4.0,-100.00,NNE,12,6.0,14.0,20,0.00,,,0.00,441.000000,,2013-02-01 21:32:00,
2013-02-01 17:32:00,30.0,-4.0,-100.00,ESE,106,4.0,11.0,22,0.00,,,0.00,230.000000,,2013-02-01 22:32:00,
2013-02-01 18:32:00,26.0,2.0,-100.00,WNW,285,2.0,8.0,34,0.00,,,0.00,33.000000,,2013-02-01 23:32:00,
2013-02-01 18:42:00,26.0,2.0,-100.00,WNW,285,2.0,8.0,34,0.00,,,0.00,33.000000,,2013-02-01 23:42:00,
2013-02-01 18:52:00,26.0,2.0,-100.00,WNW,285,2.0,8.0,34,0.00,,,0.00,33.000000,,2013-02-01 23:52:00,
2013-02-01 19:02:00,26.0,2.0,-100.00,WNW,285,2.0,8.0,34,0.00,,,0.00,33.000000,,2013-02-02 00:02:00,
2013-02-01 19:32:00,23.0,6.0,-100.00,WSW,243,2.0,6.0,47,0.00,,,0.00,0.000000,,2013-02-02 00:32:00,
2013-02-01 19:42:00,23.0,6.0,-100.00,WSW,243,2.0,6.0,47,0.00,,,0.00,0.000000,,2013-02-02 00:42:00,
2013-02-01 19:52:00,23.0,6.0,-100.00,WSW,243,2.0,6.0,47,0.00,,,0.00,0.000000,,2013-02-02 00:52:00,
2013-02-01 20:02:00,23.0,6.0,-100.00,WSW,243,2.0,6.0,47,0.00,,,0.00,0.000000,,2013-02-02 01:02:00,
2013-02-01 20:32:00,20.0,8.0,-100.00,North,4,2.0,6.0,60,0.00,,,0.00,0.000000,,2013-02-02 01:32:00,
2013-02-01 20:42:00,20.0,8.0,-100.00,North,4,2.0,6.0,60,0.00,,,0.00,0.000000,,2013-02-02 01:42:00,
2013-02-01 20:52:00,20.0,8.0,-100.00,North,4,2.0,6.0,60,0.00,,,0.00,0.000000,,2013-02-02 01:52:00,
2013-02-01 21:01:00,20.0,8.0,-100.00,North,4,2.0,6.0,60,0.00,,,0.00,0.000000,,2013-02-02 02:01:00,
2013-02-01 21:32:00,19.0,8.0,-100.00,North,3,2.0,8.0,61,0.00,,,0.00,0.000000,,2013-02-02 02:32:00,
2013-02-01 21:42:00,19.0,8.0,-100.00,North,3,2.0,8.0,61,0.00,,,0.00,0.000000,,2013-02-02 02:42:00,
2013-02-01 21:52:00,19.0,8.0,-100.00,North,3,2.0,8.0,61,0.00,,,0.00,0.000000,,2013-02-02 02:52:00,
2013-02-01 22:02:00,19.0,8.0,-100.00,North,3,2.0,8.0,61,0.00,,,0.00,0.000000,,2013-02-02 03:02:00,
2013-02-01 22:22:00,17.0,8.0,-100.00,North,3,2.0,3.0,68,0.00,,,0.00,0.000000,,2013-02-02 03:22:00,
2013-02-01 22:32:00,17.0,8.0,-100.00,North,3,2.0,3.0,68,0.00,,,0.00,0.000000,,2013-02-02 03:32:00,
2013-02-01 22:42:00,17.0,8.0,-100.00,North,3,2.0,3.0,68,0.00,,,0.00,0.000000,,2013-02-02 03:42:00,
2013-02-01 22:52:00,17.0,8.0,-100.00,North,3,2.0,3.0,68,0.00,,,0.00,0.000000,,2013-02-02 03:52:00,
2013-02-01 23:02:00,17.0,8.0,-100.00,North,3,2.0,3.0,68,0.00,,,0.00,0.000000,,2013-02-02 04:02:00,
2013-02-01 23:33:00,16.0,9.0,-100.00,North,3,1.0,3.0,72,0.00,,,0.00,0.000000,,2013-02-02 04:33:00,
2013-02-01 23:42:00,16.0,9.0,-100.00,North,3,1.0,3.0,72,0.00,,,0.00,0.000000,,2013-02-02 04:42:00,
2013-02-01 23:52:00,16.0,9.0,-100.00,North,3,1.0,3.0,72,0.00,,,0.00,0.000000,,2013-02-02 04:52:00,